Regional Weather Roundup
Issued by NWS

Home | Current Version | Previous Version | Graphics & Text | Print | Product List | Glossary On
Versions: 1 2 3 4 5 6 7 8 9 10 11 12 13 14 15 16 17 18 19 20 21 22 23 24 25 26 27 28 29 30 31 32 33 34 35 36 37 38 39 40 41 42 43 44 45 46 47 48 49 50
580
ASUS43 KMPX 230501
RWRMN
WEATHER ROUNDUP FOR MINNESOTA
NATIONAL WEATHER SERVICE TWIN CITIES/CHANHASSEN MN
1200 AM CDT SAT JUL 23 2016


NOTE: "FAIR" INDICATES FEW OR NO CLOUDS BELOW 12,000 FEET WITH NO
SIGNIFICANT WEATHER AND/OR OBSTRUCTIONS TO VISIBILITY. N/A MEANS
CURRENT SKY AND/OR WEATHER CONDITIONS ARE NOT AVAILABLE.

MNZ060>063-068>070-230600-
   Twin Cities Metro

CITY           SKY/WX    TMP DP  RH WIND       PRES   REMARKS
TWIN CITIES    MOCLDY    83  64  52 E6        29.96F
ST PAUL        PTCLDY    76  68  76 CALM      29.96F
CRYSTAL        PTCLDY    76  64  66 CALM      29.95F
BLAINE         CLOUDY    75  66  73 CALM      29.97F
LAKEVILLE      PTCLDY    70  70 100 CALM      29.97F
EDEN PRAIRIE   PTCLDY    78  67  68 E3        29.96S
LAKEVILLE      PTCLDY    70  70 100 CALM      29.97F
SOUTH ST PAUL  PTCLDY    76  67  72 CALM      29.96F
LAKE ELMO      FAIR      70  68  94 CALM      29.99F
$$
MNZ001>005-007-008-013>017-022>024-027-028-230600-
   Northwest Minnesota

CITY           SKY/WX    TMP DP  RH WIND       PRES   REMARKS
HALLOCK        CLOUDY    68  64  88 CALM      29.99F
ROSEAU         MOCLDY    63  57  82 S3        30.02S
WARROAD        CLOUDY    66  61  82 NW6       30.02F
THIEF RVR FALL CLOUDY    70  62  76 NE3       30.02F
CROOKSTON      CLOUDY    73  64  73 E5        30.00F
FOSSTON        CLOUDY    66  64  94 CALM      30.03S
DETROIT LAKES  MOCLDY    73  66  78 NE5       30.04R
MOORHEAD       CLOUDY    73  68  83 E3        29.99F
PARK RAPIDS    CLOUDY    75  64  68 CALM      30.03S
MAHNOMEN       FAIR      70  64  82 E5        30.01F
$$
MNZ006-009>011-018-025>026-230600-
   North Central Minnesota

CITY           SKY/WX    TMP DP  RH WIND       PRES   REMARKS
BAUDETTE       MOCLDY    64  61  90 W3        30.02S
FLAG ISLAND    CLOUDY    72  61  68 NW3       30.01S
INTL FALLS     CLOUDY    58  57  97 CALM      30.01R
WASKISH        MOCLDY    63  61  94 CALM      30.03S
BIG FORK       CLOUDY    61  57  88 CALM      30.04R
LONGVILLE      PTCLDY    66  64  94 CALM      30.02S
GRAND RAPIDS   CLOUDY    64  62  93 CALM      30.05R
ORR            CLOUDY    61  57  88 CALM      30.01R
COOK           CLOUDY    61  61 100 CALM      30.03S
WALKER         FAIR      65  63  94 CALM      30.03S
$$
MNZ012-019>021-037-230600-
   Northeast Minnesota

CITY           SKY/WX    TMP DP  RH WIND       PRES   REMARKS
DULUTH         CLOUDY    71  59  65 N6        30.02R
ELY            CLEAR     61  55  82 CALM      30.03R
HIBBING        CLOUDY    60  59  96 NW3       30.03R
EVELETH        CLOUDY    63  62  97 CALM      30.04R
DULUTH HARBOR  PTCLDY    75  66  73 S3        29.98R
TWO HARBORS    CLOUDY    73  63  68 NW3       29.99R
SILVER BAY     CLEAR     63  61  94 CALM      29.99R
GRAND MARAIS     N/A     74  54  49 NW7       29.96R
G MARAIS ARPRT CLEAR     66  54  63 W3        30.03R
$$
MNZ029>031-032-039>041-046>048-054>057-064-230600-
   West Central Minnesota

CITY           SKY/WX    TMP DP  RH WIND       PRES   REMARKS
FERGUS FALLS   MOCLDY    75  68  78 E3        30.00F
WHEATON        MOCLDY    73  72  94 CALM      29.98S
MORRIS         CLOUDY    72  68  88 NE3       29.97S
ALEXANDRIA     CLOUDY    73  67  81 E5        30.01S
ELBOW LAKE     FAIR      76  71  82 CALM      29.99S
WADENA         CLOUDY    70  66  88 CALM      30.02S
GLENWOOD       CLOUDY    72  66  83 E6        30.00F
APPLETON       CLOUDY    73  68  83 CALM      29.96R
BENSON         CLOUDY    73  64  73 E5        29.97R
ORTONVILLE     CLOUDY    73  68  83 CALM      29.96F
MADISON        CLOUDY    73  70  88 CALM      29.96S
WILLMAR        FAIR      73  68  83 E6        29.98F
$$
MNZ033>034-036-042>043-049>051-058-059-230600-
   Central Minnesota

CITY           SKY/WX    TMP DP  RH WIND       PRES   REMARKS
ST CLOUD       PTCLDY    69  69 100 NE3       29.98S
SAUK CENTRE    FAIR      69  68  97 CALM      29.99S
PAYNESVILLE    PTCLDY    70  70  99 CALM      29.99S
AITKIN         HAZE      68  63  83 CALM      30.01R VSB 1
PINE RIVER     PTCLDY    68  66  94 CALM      30.05S
BRAINERD       MOCLDY    70  69  97 CALM      30.02R
STAPLES        MOCLDY    72  66  83 CALM      30.02S
LONG PRAIRIE   FAIR      70  70 100 CALM      30.02R
LITTLE FALLS   PTCLDY    68  66  94 CALM      30.01S
LITCHFIELD     PTCLDY    73  70  88 CALM      29.99R
BUFFALO        PTCLDY    74  65  73 CALM      29.98S
MAPLE LAKE     PTCLDY    74  68  82 CALM      29.99S
HUTCHINSON     CLOUDY    73  68  84 CALM      29.99R
$$
MNZ037-044-045-052-053-230600-
   East Central Minnesota

CITY           SKY/WX    TMP DP  RH WIND       PRES   REMARKS
PRINCETON      CLOUDY    72  70  94 CALM      29.98S
MORA             N/A     70  70 100 CALM      30.02R FOG
CAMBRIDGE      CLOUDY    72  63  73 CALM      29.97S
RUSH CITY      MOCLDY    70  68  95 CALM      30.00R
MOOSE LAKE     PTCLDY    68  64  88 CALM      29.99S
HINCKLEY       FAIR      72  70  94 CALM      30.01R
CLOQUET        CLOUDY    70  61  73 NW3       30.02R
MCGREGOR       CLOUDY    70  66  88 CALM      30.02S
$$
MNZ071>073-080-081-089-090-097-098-230600-
   Southwest Minnesota

CITY           SKY/WX    TMP DP  RH WIND       PRES   REMARKS
MONTEVIDEO     CLOUDY    73  70  88 S6        29.98S
GRANITE FALLS  CLOUDY    77  70  77 CALM      29.98S
CANBY          MOCLDY    74  69  85 CALM      29.97F
MARSHALL       MOCLDY    76  70  82 E6        29.96S
REDWOOD FALLS  MOCLDY    78  68  71 E5        29.96S
OLIVIA         CLOUDY    75  68  78 E3        29.96F
PIPESTONE      CLOUDY    81  75  83 E5        29.98S
WORTHINGTON    MOCLDY    79  78  97 E6        29.98S
JACKSON        CLOUDY    79  75  89 E6        29.98S
TRACY          CLOUDY    76  72  87 E5        29.97S
SLAYTON        CLOUDY    77  75  93 E6        29.98F
$$
MNZ065>067-074>077-082>085-091>093-230600-
   South Central Minnesota

CITY           SKY/WX    TMP DP  RH WIND       PRES   REMARKS
MANKATO        MOCLDY    79  70  73 SE9       29.97F
NEW ULM        PTCLDY    81  70  69 SE8       29.96S
ST JAMES       PTCLDY    73  72  94 E5        29.96F
FAIRMONT       PTCLDY    79  48  34 E6        29.95F
GLENCOE        PTCLDY    73  70  90 CALM      29.97R
FARIBAULT      MOCLDY    79  68  69 SE7       29.98F
OWATONNA       CLOUDY    79  70  73 SE3       29.99F
WASECA         CLOUDY    77  73  88 SE6       30.00S
ALBERT LEA     CLOUDY    81  77  89 SE6       29.99F
$$
MNZ078>079-086>088-094>096-230600-
   Southeast Minnesota

CITY           SKY/WX    TMP DP  RH WIND       PRES   REMARKS
ROCHESTER      MOCLDY    80  78  94 S6        30.01F
RED WING       CLOUDY    70  66  88 CALM      29.97S
STANTON        CLOUDY    70  68  94 CALM      29.97S
DODGE CENTER   PTCLDY    75  70  83 CALM      30.01S
WINONA         CLOUDY    73  72  94 CALM      29.99S
AUSTIN         PTCLDY    77  75  94 E3        30.00S
PRESTON        PTCLDY    77  74  91 CALM      30.03R
$$
ABBREVIATIONS USED IN REMARKS
   TC - TEMPERATURES IN CELSIUS
  WCI - WIND CHILL INDEX
   HX - HEAT INDEX
  VSB - VISIBILITY
$$




USA.gov is the U.S. government's official web portal to all federal, state and local government web resources and services.